Regional Weather Roundup
Issued by NWS

Home | Current Version | Previous Version | Graphics & Text | Print | Product List | Glossary On
Versions: 1 2 3 4 5 6 7 8 9 10 11 12 13 14 15 16 17 18 19 20 21 22 23 24 25 26 27 28 29 30 31 32 33 34 35 36 37 38 39 40 41 42 43 44 45 46 47 48 49
000
ASUS45 KSLC 182110
RWRUT

UTAH REGIONAL WEATHER ROUNDUP
NATIONAL WEATHER SERVICE SALT LAKE CITY UT
200 PM MST THU DEC 18 2014

UTZ001>011-023>025-182200-

NORTHERN UTAH

CITY           SKY/WX    TMP DP  RH WIND       PRES   REMARKS
BRIGHAM CITY   PTSUNNY   42  32  68 SW5       30.14S
HILL AFB       PTSUNNY   40  30  65 NW6       30.12F
LOGAN          MOSUNNY   42  28  57 CALM      30.12F
OGDEN          CLOUDY    43  32  65 NE5       30.12F
PROVO AIRPORT  NOT AVBL
SALT LAKE CITY   N/A     43  32  65 SE5       30.12F
VERNAL         CLOUDY    27  23  85 CALM      30.16F
WENDOVER       PTSUNNY   37  27  65 SE3       30.14S
HEBER CITY     CLOUDY    34  30  86 N5        30.10F WCI  30
WEST JORDAN    SUNNY     43  36  75 SE6       30.13F

$$

UTZ012>022-026-027-182200-

SOUTHERN/CENTRAL UTAH

CITY           SKY/WX    TMP DP  RH WIND       PRES   REMARKS
BLANDING       CLOUDY    37  31  78 CALM      30.18F
BRYCE CANYON   PTSUNNY   30  18  60 NW13      30.10S WCI  20
CEDAR CITY     PTSUNNY   40  29  64 N7        30.10F
DELTA            N/A     42  30  61 S3        30.12F
MILFORD          N/A     44  28  53 S5        30.10F
MOAB/CYNLANDS  CLOUDY    38  33  82 W10       30.12F WCI  31
PRICE          CLOUDY    32  27  81 S5        30.10F WCI  27
ST GEORGE        N/A     52  36  54 CALM      30.15F
KANAB          PTSUNNY   43  32  65 SW5       30.15F

$$

REGIONAL REPORTS     COLORADO/ARIZONA

CITY           SKY/WX    TMP DP  RH WIND       PRES   REMARKS
CRAIG, CO      CLOUDY    27  24  89 S3        30.11F
GRAND JUNCTION PTSUNNY   39  32  76 NW7       30.11F WCI  34
RIFLE          PTSUNNY   40  28  62 W5        30.09F
MONTROSE       CLOUDY    37  32  82 N9        30.11S WCI  30
CORTEZ         CLOUDY    34  31  88 SE6       30.12S WCI  29
PAGE, AZ       PTSUNNY   45  32  60 CALM      30.11F
GRAND CANYON   PTSUNNY   35  28  75 CALM      30.11F
KINGMAN        PTSUNNY   51  36  56 N9        30.13F
FLAGSTAFF      LGT SNOW  32  29  88 NE7       30.09F FOG     WCI  26

$$

REGIONAL REPORTS    NEVADA/IDAHO/WYOMING

CITY           SKY/WX    TMP DP  RH WIND       PRES   REMARKS
LAS VEGAS, NV  PTSUNNY   55  39  54 CALM      30.11F
ELY              N/A     37  24  59 NW5       30.11F WCI  33
ELKO           CLOUDY    35  30  82 SW5       30.13S WCI  31
POCATELLO, ID  PTSUNNY   35  29  78 CALM      30.12F
BURLEY         CLOUDY    43  29  57 N3        30.09F
EVANSTON, WY   LGT SNOW  31  22  69 SW8       30.08S WCI  23
ROCK SPRINGS   MOSUNNY   32  18  56 W14       30.07S WCI  22
KEMMERER       CLOUDY    32  19  59 W14G20    30.07S WCI  22

$$


USA.gov is the U.S. government's official web portal to all federal, state and local government web resources and services.